| time (UTC) | temp F | wind direction | speed MPH | gust MPH | rain 1hr in | rain 24hr in | rain mn in | humidity % | barometer mb |
| 20260510191536 | 71 | 201 | 1.0 | 2.0 | 0.00 | 0.00 | 0.00 | 56 | 1009.3 |
| 20260510191032 | 69 | 264 | 4.0 | 6.0 | 0.00 | 0.00 | 0.00 | 58 | 1009.2 |
| 20260510190530 | 69 | 163 | 2.0 | 3.0 | 0.00 | 0.00 | 0.00 | 59 | 1009.2 |
| 20260510190027 | 71 | 9 | 2.0 | 4.0 | 0.00 | 0.00 | 0.00 | 57 | 1009.2 |
| 20260510185524 | 71 | 292 | 3.0 | 6.0 | 0.00 | 0.00 | 0.00 | 53 | 1009.1 |
| 20260510185021 | 72 | 277 | 2.0 | 4.0 | 0.00 | 0.00 | 0.00 | 53 | 1009.1 |
| 20260510184519 | 71 | 73 | 1.0 | 4.0 | 0.00 | 0.00 | 0.00 | 57 | 1009.0 |
| 20260510184014 | 70 | 222 | 6.0 | 9.0 | 0.00 | 0.00 | 0.00 | 55 | 1009.2 |
| 20260510183509 | 71 | 53 | 2.0 | 7.0 | 0.00 | 0.00 | 0.00 | 57 | 1008.9 |
| 20260510183005 | 71 | 108 | 1.0 | 8.0 | 0.00 | 0.00 | 0.00 | 56 | 1009.0 |
| 20260510182502 | 72 | 199 | 3.0 | 6.0 | 0.00 | 0.00 | 0.00 | 56 | 1009.3 |
| 20260510181956 | 70 | 204 | 7.0 | 9.0 | 0.00 | 0.00 | 0.00 | 57 | 1009.4 |
| 20260510181455 | 69 | 237 | 2.0 | 6.0 | 0.00 | 0.00 | 0.00 | 60 | 1009.2 |
| 20260510180950 | 69 | 112 | 3.0 | 10.0 | 0.00 | 0.00 | 0.00 | 59 | 1009.4 |
| 20260510180448 | 69 | 119 | 3.0 | 4.0 | 0.00 | 0.00 | 0.00 | 59 | 1009.4 |
| 20260510175945 | 71 | 226 | 3.0 | 4.0 | 0.00 | 0.00 | 0.00 | 56 | 1009.2 |
| 20260510175441 | 71 | 163 | 4.0 | 6.0 | 0.00 | 0.00 | 0.00 | 58 | 1009.6 |
| 20260510174937 | 71 | 59 | 1.0 | 8.0 | 0.00 | 0.00 | 0.00 | 59 | 1009.7 |
| 20260510174435 | 72 | 175 | 3.0 | 6.0 | 0.00 | 0.00 | 0.00 | 56 | 1009.6 |
| 20260510173931 | 72 | 189 | 6.0 | 9.0 | 0.00 | 0.00 | 0.00 | 55 | 1009.8 |
| 20260510173427 | 71 | 192 | 1.0 | 4.0 | 0.00 | 0.00 | 0.00 | 59 | 1009.8 |
| 20260510172924 | 70 | 159 | 2.0 | 6.0 | 0.00 | 0.00 | 0.00 | 62 | 1009.7 |
| 20260510172420 | 70 | 79 | 3.0 | 6.0 | 0.00 | 0.00 | 0.00 | 60 | 1010.0 |
| 20260510171916 | 69 | 195 | 2.0 | 4.0 | 0.00 | 0.00 | 0.00 | 60 | 1009.8 |
| 20260510171414 | 68 | 149 | 1.0 | 4.0 | 0.00 | 0.00 | 0.00 | 62 | 1010.0 |
| 20260510170910 | 68 | 128 | 2.0 | 4.0 | 0.00 | 0.00 | 0.00 | 63 | 1010.1 |
| 20260510170407 | 68 | 114 | 4.0 | 7.0 | 0.00 | 0.00 | 0.00 | 61 | 1010.4 |
| 20260510165902 | 68 | 160 | 1.0 | 3.0 | 0.00 | 0.00 | 0.00 | 64 | 1010.3 |
| 20260510165358 | 68 | 147 | 3.0 | 4.0 | 0.00 | 0.00 | 0.00 | 64 | 1010.3 |
| 20260510164856 | 66 | 18 | 1.0 | 3.0 | 0.00 | 0.00 | 0.00 | 67 | 1010.5 |
| 20260510164353 | 67 | 197 | 2.0 | 4.0 | 0.00 | 0.00 | 0.00 | 67 | 1010.6 |
| 20260510163852 | 67 | 113 | 1.0 | 2.0 | 0.00 | 0.00 | 0.00 | 68 | 1010.7 |
| 20260510163349 | 66 | 143 | 1.0 | 2.0 | 0.00 | 0.00 | 0.00 | 69 | 1010.6 |
| 20260510162843 | 64 | 126 | 1.0 | 4.0 | 0.00 | 0.00 | 0.00 | 70 | 1010.7 |
| 20260510162341 | 64 | 164 | 0.0 | 3.0 | 0.00 | 0.00 | 0.00 | 68 | 1010.7 |
| 20260510161837 | 65 | 210 | 3.0 | 6.0 | 0.00 | 0.00 | 0.00 | 69 | 1010.6 |
| 20260510161333 | 64 | 138 | 1.0 | 3.0 | 0.00 | 0.00 | 0.00 | 72 | 1010.7 |
| 20260510160830 | 63 | 205 | 2.0 | 7.0 | 0.00 | 0.00 | 0.00 | 71 | 1010.8 |
| 20260510160327 | 64 | 161 | 1.0 | 3.0 | 0.00 | 0.00 | 0.00 | 71 | 1011.0 |
| 20260510155826 | 63 | 174 | 2.0 | 2.0 | 0.00 | 0.00 | 0.00 | 71 | 1011.2 |
| 20260510155323 | 63 | 107 | 3.0 | 7.0 | 0.00 | 0.00 | 0.00 | 72 | 1010.9 |
| 20260510154819 | 63 | 213 | 4.0 | 6.0 | 0.00 | 0.00 | 0.00 | 72 | 1010.8 |
| 20260510154315 | 62 | 194 | 2.0 | 4.0 | 0.00 | 0.00 | 0.00 | 74 | 1010.9 |
| 20260510153809 | 63 | 200 | 3.0 | 6.0 | 0.00 | 0.00 | 0.00 | 71 | 1010.6 |
| 20260510153306 | 64 | 135 | 0.0 | 3.0 | 0.00 | 0.00 | 0.00 | 70 | 1010.9 |
| 20260510152803 | 63 | 205 | 1.0 | 4.0 | 0.00 | 0.00 | 0.00 | 71 | 1010.9 |
| 20260510152259 | 64 | 210 | 5.0 | 6.0 | 0.00 | 0.00 | 0.00 | 71 | 1010.8 |
| 20260510151756 | 62 | 183 | 1.0 | 2.0 | 0.00 | 0.00 | 0.00 | 75 | 1010.7 |
| 20260510151254 | 62 | 163 | 1.0 | 3.0 | 0.00 | 0.00 | 0.00 | 75 | 1010.8 |
| 20260510150749 | 62 | 193 | 2.0 | 4.0 | 0.00 | 0.00 | 0.00 | 75 | 1010.8 |
| 20260510150245 | 61 | 91 | 1.0 | 4.0 | 0.00 | 0.00 | 0.00 | 77 | 1010.8 |
| 20260510145741 | 60 | 127 | 1.0 | 2.0 | 0.00 | 0.00 | 0.00 | 78 | 1010.9 |
| 20260510145238 | 60 | 133 | 0.0 | 2.0 | 0.00 | 0.00 | 0.00 | 78 | 1010.9 |
| 20260510144734 | 60 | 198 | 1.0 | 3.0 | 0.00 | 0.00 | 0.00 | 76 | 1010.9 |
| 20260510144232 | 60 | 147 | 1.0 | 4.0 | 0.00 | 0.00 | 0.00 | 79 | 1011.2 |
| 20260510143726 | 59 | 79 | 1.0 | 3.0 | 0.00 | 0.00 | 0.00 | 81 | 1011.3 |
| 20260510143223 | 58 | 137 | 0.0 | 3.0 | 0.00 | 0.00 | 0.00 | 82 | 1011.2 |
| 20260510142719 | 58 | 147 | 0.0 | 2.0 | 0.00 | 0.00 | 0.00 | 83 | 1011.5 |
| 20260510142216 | 57 | 176 | 2.0 | 3.0 | 0.00 | 0.00 | 0.00 | 83 | 1011.6 |
| 20260510141713 | 57 | 118 | 0.0 | 2.0 | 0.00 | 0.00 | 0.00 | 85 | 1011.4 |
| 20260510141211 | 57 | 97 | 2.0 | 3.0 | 0.00 | 0.00 | 0.00 | 84 | 1011.4 |
| 20260510140707 | 57 | 141 | 0.0 | 3.0 | 0.00 | 0.00 | 0.00 | 84 | 1011.3 |
| 20260510140207 | 57 | 205 | 1.0 | 2.0 | 0.00 | 0.00 | 0.00 | 84 | 1011.4 |
| 20260510135702 | 57 | 252 | 3.0 | 3.0 | 0.00 | 0.00 | 0.00 | 84 | 1011.3 |
| 20260510135158 | 57 | 157 | 2.0 | 3.0 | 0.00 | 0.00 | 0.00 | 84 | 1011.1 |
| 20260510134656 | 57 | 60 | 2.0 | 3.0 | 0.00 | 0.00 | 0.00 | 86 | 1011.2 |
| 20260510134153 | 57 | 136 | 1.0 | 3.0 | 0.00 | 0.00 | 0.00 | 86 | 1011.1 |
| 20260510133649 | 56 | 172 | 0.0 | 2.0 | 0.00 | 0.00 | 0.00 | 87 | 1011.2 |
| 20260510133144 | 56 | 158 | 2.0 | 3.0 | 0.00 | 0.00 | 0.00 | 88 | 1011.2 |
| 20260510132641 | 56 | 175 | 2.0 | 3.0 | 0.00 | 0.00 | 0.00 | 89 | 1011.2 |
| 20260510132138 | 56 | 61 | 0.0 | 2.0 | 0.00 | 0.00 | 0.00 | 91 | 1011.1 |
| 20260510131636 | 55 | 127 | 0.0 | 3.0 | 0.00 | 0.00 | 0.00 | 92 | 1011.2 |
| 20260510131133 | 54 | 183 | 1.0 | 2.0 | 0.00 | 0.00 | 0.00 | 93 | 1011.1 |
| 20260510130629 | 54 | 170 | 2.0 | 3.0 | 0.00 | 0.00 | 0.00 | 94 | 1011.0 |
| 20260510130127 | 54 | 165 | 0.0 | 1.0 | 0.00 | 0.00 | 0.00 | 95 | 1011.2 |
| 20260510125623 | 54 | 136 | 0.0 | 1.0 | 0.00 | 0.00 | 0.00 | 96 | 1011.1 |
| 20260510125119 | 53 | 133 | 0.0 | 1.0 | 0.00 | 0.00 | 0.00 | 96 | 1011.0 |
| 20260510124616 | 53 | 147 | 0.0 | 3.0 | 0.00 | 0.00 | 0.00 | 96 | 1011.3 |
| 20260510124113 | 53 | 149 | 1.0 | 1.0 | 0.00 | 0.00 | 0.00 | 97 | 1011.4 |
| 20260510123608 | 53 | 138 | 0.0 | 1.0 | 0.00 | 0.00 | 0.00 | 97 | 1011.1 |
| 20260510123105 | 52 | 145 | 0.0 | 3.0 | 0.00 | 0.00 | 0.00 | 97 | 1011.3 |
| 20260510122601 | 52 | 191 | 0.0 | 1.0 | 0.00 | 0.00 | 0.00 | 98 | 1011.3 |
| 20260510122057 | 52 | 145 | 0.0 | 1.0 | 0.00 | 0.00 | 0.00 | 98 | 1011.3 |
| 20260510121554 | 52 | 50 | 1.0 | 1.0 | 0.00 | 0.00 | 0.00 | 98 | 1011.4 |
| 20260510121051 | 52 | 116 | 0.0 | 0.0 | 0.00 | 0.00 | 0.00 | 98 | 1011.2 |
| 20260510120549 | 51 | 146 | 0.0 | 1.0 | 0.00 | 0.00 | 0.00 | 98 | 1011.5 |
| 20260510120044 | 51 | 113 | 0.0 | 0.0 | 0.00 | 0.00 | 0.00 | 98 | 1011.2 |
| 20260510115541 | 51 | 169 | 0.0 | 2.0 | 0.00 | 0.00 | 0.00 | 98 | 1011.3 |
| 20260510115038 | 51 | 158 | 1.0 | 1.0 | 0.00 | 0.00 | 0.00 | 98 | 1011.3 |
| 20260510114533 | 51 | 142 | 0.0 | 1.0 | 0.00 | 0.00 | 0.00 | 98 | 1011.1 |
| 20260510114030 | 51 | 186 | 1.0 | 3.0 | 0.00 | 0.00 | 0.00 | 98 | 1011.1 |
| 20260510113525 | 51 | 175 | 1.0 | 2.0 | 0.00 | 0.00 | 0.00 | 98 | 1011.0 |
| 20260510113023 | 51 | 168 | 0.0 | 3.0 | 0.00 | 0.00 | 0.00 | 98 | 1011.0 |
| 20260510112520 | 51 | 144 | 0.0 | 0.0 | 0.00 | 0.00 | 0.00 | 98 | 1010.9 |
| 20260510112011 | 51 | 92 | 0.0 | 1.0 | 0.00 | 0.00 | 0.00 | 98 | 1010.8 |
| 20260510111508 | 51 | 177 | 1.0 | 2.0 | 0.00 | 0.00 | 0.00 | 98 | 1010.5 |
| 20260510111003 | 50 | 114 | 0.0 | 1.0 | 0.00 | 0.00 | 0.00 | 98 | 1010.9 |
| 20260510110500 | 50 | 276 | 2.0 | 4.0 | 0.00 | 0.00 | 0.00 | 98 | 1010.7 |
| 20260510105955 | 50 | 191 | 0.0 | 1.0 | 0.00 | 0.00 | 0.00 | 98 | 1010.5 |
| 20260510105451 | 50 | 223 | 1.0 | 2.0 | 0.00 | 0.00 | 0.00 | 98 | 1010.6 |
| 20260510104946 | 50 | 115 | 0.0 | 3.0 | 0.00 | 0.00 | 0.00 | 98 | 1010.3 |
| 20260510104443 | 50 | 136 | 0.0 | 1.0 | 0.00 | 0.00 | 0.00 | 98 | 1010.6 |
| 20260510103940 | 50 | 145 | 0.0 | 0.0 | 0.00 | 0.00 | 0.00 | 98 | 1010.6 |
| 20260510103437 | 50 | 180 | 0.0 | 1.0 | 0.00 | 0.00 | 0.00 | 98 | 1010.5 |
| 20260510102937 | 50 | 203 | 1.0 | 1.0 | 0.00 | 0.00 | 0.00 | 98 | 1010.1 |
| 20260510102434 | 50 | 121 | 0.0 | 0.0 | 0.00 | 0.00 | 0.00 | 98 | 1010.1 |
| 20260510101931 | 49 | 138 | 0.0 | 0.0 | 0.00 | 0.00 | 0.00 | 98 | 1010.1 |
| 20260510101428 | 49 | 97 | 0.0 | 0.0 | 0.00 | 0.00 | 0.00 | 98 | 1010.0 |
| 20260510100926 | 49 | 165 | 0.0 | 1.0 | 0.00 | 0.00 | 0.00 | 98 | 1010.1 |
| 20260510100422 | 49 | 130 | 0.0 | 0.0 | 0.00 | 0.00 | 0.00 | 98 | 1009.9 |
| 20260510095919 | 49 | 126 | 0.0 | 0.0 | 0.00 | 0.00 | 0.00 | 98 | 1010.2 |
| 20260510095414 | 49 | 154 | 0.0 | 1.0 | 0.00 | 0.00 | 0.00 | 98 | 1010.1 |
| 20260510094913 | 49 | 130 | 0.0 | 1.0 | 0.00 | 0.00 | 0.00 | 98 | 1009.8 |
| 20260510094408 | 49 | 139 | 0.0 | 0.0 | 0.00 | 0.00 | 0.00 | 98 | 1009.8 |
| 20260510093905 | 49 | 123 | 0.0 | 1.0 | 0.00 | 0.00 | 0.00 | 98 | 1010.1 |
| 20260510093400 | 49 | 123 | 1.0 | 2.0 | 0.00 | 0.00 | 0.00 | 98 | 1010.3 |
| 20260510092857 | 49 | 123 | 0.0 | 1.0 | 0.00 | 0.00 | 0.00 | 98 | 1010.1 |
| 20260510092354 | 49 | 130 | 0.0 | 0.0 | 0.00 | 0.00 | 0.00 | 98 | 1010.4 |
| 20260510091849 | 49 | 155 | 0.0 | 1.0 | 0.00 | 0.00 | 0.00 | 98 | 1010.0 |
| 20260510091346 | 49 | 142 | 0.0 | 1.0 | 0.00 | 0.00 | 0.00 | 98 | 1009.9 |
| 20260510090843 | 49 | 161 | 0.0 | 1.0 | 0.00 | 0.00 | 0.00 | 98 | 1009.8 |
| 20260510090339 | 49 | 134 | 1.0 | 2.0 | 0.00 | 0.00 | 0.00 | 98 | 1010.1 |
| 20260510085836 | 49 | 105 | 0.0 | 0.0 | 0.00 | 0.00 | 0.00 | 98 | 1010.1 |
| 20260510085336 | 49 | 146 | 0.0 | 1.0 | 0.00 | 0.00 | 0.00 | 98 | 1010.0 |
| 20260510084832 | 49 | 197 | 1.0 | 2.0 | 0.00 | 0.00 | 0.00 | 98 | 1010.2 |
| 20260510084329 | 48 | 148 | 0.0 | 0.0 | 0.00 | 0.00 | 0.00 | 98 | 1010.0 |
| 20260510083826 | 48 | 132 | 0.0 | 0.0 | 0.00 | 0.00 | 0.00 | 98 | 1010.2 |
| 20260510083323 | 48 | 207 | 0.0 | 0.0 | 0.00 | 0.00 | 0.00 | 98 | 1009.9 |
| 20260510082818 | 48 | 151 | 0.0 | 0.0 | 0.00 | 0.00 | 0.00 | 98 | 1010.2 |
| 20260510082316 | 48 | 113 | 0.0 | 0.0 | 0.00 | 0.00 | 0.00 | 98 | 1009.9 |
| 20260510081814 | 48 | 115 | 0.0 | 0.0 | 0.00 | 0.00 | 0.00 | 98 | 1010.1 |
| 20260510081310 | 48 | 110 | 0.0 | 0.0 | 0.00 | 0.00 | 0.00 | 98 | 1010.1 |
| 20260510080806 | 48 | 110 | 0.0 | 0.0 | 0.00 | 0.00 | 0.00 | 98 | 1009.8 |
| 20260510080301 | 48 | 135 | 0.0 | 0.0 | 0.00 | 0.00 | 0.00 | 98 | 1009.8 |
| 20260510075759 | 48 | 151 | 0.0 | 0.0 | 0.00 | 0.00 | 0.00 | 98 | 1010.1 |
| 20260510075256 | 48 | 147 | 0.0 | 0.0 | 0.00 | 0.00 | 0.00 | 97 | 1009.9 |
| 20260510074753 | 48 | 139 | 0.0 | 0.0 | 0.00 | 0.00 | 0.00 | 97 | 1010.1 |
| 20260510074249 | 48 | 142 | 0.0 | 0.0 | 0.00 | 0.00 | 0.00 | 98 | 1009.9 |
| 20260510073745 | 48 | 166 | 0.0 | 0.0 | 0.00 | 0.00 | 0.00 | 98 | 1010.0 |
| 20260510073242 | 48 | 151 | 0.0 | 0.0 | 0.00 | 0.00 | 0.00 | 97 | 1009.8 |
| 20260510072737 | 48 | 117 | 0.0 | 0.0 | 0.00 | 0.00 | 0.00 | 97 | 1009.6 |
| 20260510072234 | 48 | 113 | 0.0 | 0.0 | 0.00 | 0.00 | 0.00 | 97 | 1009.6 |
| 20260510071731 | 48 | 132 | 0.0 | 0.0 | 0.00 | 0.00 | 0.00 | 97 | 1009.5 |
| 20260510071227 | 48 | 112 | 0.0 | 0.0 | 0.00 | 0.00 | 0.00 | 97 | 1009.8 |
| 20260510070726 | 48 | 135 | 0.0 | 0.0 | 0.00 | 0.00 | 0.00 | 97 | 1010.0 |
| 20260510070223 | 48 | 213 | 0.0 | 0.0 | 0.00 | 0.00 | 0.00 | 97 | 1010.0 |
| 20260510065717 | 48 | 112 | 0.0 | 1.0 | 0.00 | 0.00 | 0.00 | 97 | 1009.8 |
| 20260510065214 | 48 | 276 | 1.0 | 2.0 | 0.00 | 0.00 | 0.00 | 97 | 1009.9 |
| 20260510064711 | 48 | 196 | 1.0 | 1.0 | 0.00 | 0.00 | 0.00 | 97 | 1010.0 |
| 20260510064209 | 48 | 177 | 0.0 | 1.0 | 0.00 | 0.00 | 0.00 | 97 | 1009.6 |
| 20260510063705 | 48 | 152 | 0.0 | 0.0 | 0.00 | 0.00 | 0.00 | 97 | 1009.8 |
| 20260510063201 | 48 | 126 | 0.0 | 0.0 | 0.00 | 0.00 | 0.00 | 97 | 1009.9 |
| 20260510062658 | 48 | 126 | 0.0 | 0.0 | 0.00 | 0.00 | 0.00 | 97 | 1009.9 |
| 20260510062153 | 48 | 149 | 0.0 | 0.0 | 0.00 | 0.00 | 0.00 | 97 | 1009.9 |
| 20260510061649 | 48 | 140 | 0.0 | 0.0 | 0.00 | 0.00 | 0.00 | 97 | 1010.1 |
| 20260510061147 | 48 | 145 | 0.0 | 0.0 | 0.00 | 0.00 | 0.00 | 97 | 1010.0 |
| 20260510060643 | 48 | 160 | 0.0 | 0.0 | 0.00 | 0.00 | 0.00 | 97 | 1009.9 |
| 20260510060139 | 48 | 146 | 0.0 | 0.0 | 0.00 | 0.00 | 0.00 | 97 | 1009.7 |
| 20260510055636 | 48 | 161 | 0.0 | 0.0 | 0.00 | 0.00 | 0.00 | 97 | 1010.0 |
| 20260510055134 | 48 | 126 | 0.0 | 0.0 | 0.00 | 0.00 | 0.00 | 97 | 1010.0 |
| 20260510054629 | 48 | 125 | 0.0 | 0.0 | 0.00 | 0.00 | 0.00 | 97 | 1009.9 |
| 20260510054125 | 48 | 150 | 0.0 | 0.0 | 0.00 | 0.00 | 0.00 | 97 | 1010.1 |
| 20260510053619 | 48 | 172 | 0.0 | 0.0 | 0.00 | 0.00 | 0.00 | 97 | 1010.1 |
| 20260510053116 | 48 | 117 | 0.0 | 0.0 | 0.00 | 0.00 | 0.00 | 97 | 1010.5 |
| 20260510052611 | 48 | 148 | 0.0 | 0.0 | 0.00 | 0.00 | 0.00 | 97 | 1010.5 |
| 20260510052108 | 48 | 165 | 0.0 | 0.0 | 0.00 | 0.00 | 0.00 | 97 | 1010.4 |
| 20260510051603 | 48 | 118 | 0.0 | 0.0 | 0.00 | 0.00 | 0.00 | 97 | 1010.5 |
| 20260510051101 | 48 | 126 | 0.0 | 0.0 | 0.00 | 0.00 | 0.00 | 97 | 1010.3 |
| 20260510050558 | 48 | 143 | 0.0 | 0.0 | 0.00 | 0.00 | 0.00 | 97 | 1010.3 |
| 20260510050054 | 47 | 142 | 0.0 | 0.0 | 0.00 | 0.00 | 0.00 | 97 | 1010.5 |
| 20260510045546 | 47 | 142 | 0.0 | 0.0 | 0.00 | 0.00 | 0.00 | 97 | 1010.4 |
| 20260510045042 | 47 | 145 | 0.0 | 0.0 | 0.00 | 0.00 | 0.00 | 97 | 1010.4 |
| 20260510044539 | 47 | 145 | 0.0 | 0.0 | 0.00 | 0.00 | 0.00 | 97 | 1010.5 |
| 20260510044036 | 47 | 145 | 0.0 | 0.0 | 0.00 | 0.00 | 0.00 | 97 | 1010.5 |
| 20260510043532 | 47 | 145 | 0.0 | 0.0 | 0.00 | 0.00 | 0.00 | 97 | 1010.6 |
| 20260510043027 | 47 | 145 | 0.0 | 0.0 | 0.00 | 0.00 | 0.00 | 97 | 1010.5 |
| 20260510042522 | 47 | 145 | 0.0 | 0.0 | 0.00 | 0.00 | 0.00 | 97 | 1010.3 |
| 20260510042021 | 47 | 147 | 0.0 | 0.0 | 0.00 | 0.00 | 0.00 | 97 | 1010.3 |
| 20260510041519 | 47 | 155 | 0.0 | 0.0 | 0.00 | 0.00 | 0.00 | 97 | 1010.3 |
| 20260510041016 | 47 | 86 | 0.0 | 0.0 | 0.00 | 0.00 | 0.00 | 97 | 1010.4 |
| 20260510040513 | 47 | 125 | 0.0 | 0.0 | 0.00 | 0.00 | 0.00 | 97 | 1010.2 |
| 20260510040009 | 47 | 119 | 0.0 | 0.0 | 0.00 | 0.56 | 0.56 | 97 | 1010.4 |
| 20260510035506 | 47 | 133 | 0.0 | 0.0 | 0.00 | 0.56 | 0.56 | 97 | 1010.5 |
| 20260510035004 | 47 | 136 | 0.0 | 0.0 | 0.00 | 0.56 | 0.56 | 97 | 1010.7 |
| 20260510034505 | 47 | 104 | 0.0 | 0.0 | 0.00 | 0.56 | 0.56 | 97 | 1010.7 |
| 20260510034000 | 46 | 116 | 0.0 | 0.0 | 0.00 | 0.56 | 0.56 | 97 | 1010.8 |
| 20260510033456 | 46 | 116 | 0.0 | 0.0 | 0.00 | 0.56 | 0.56 | 97 | 1010.8 |
| 20260510032954 | 46 | 105 | 0.0 | 0.0 | 0.00 | 0.56 | 0.56 | 97 | 1010.9 |
| 20260510032451 | 47 | 124 | 0.0 | 0.0 | 0.00 | 0.56 | 0.56 | 97 | 1010.7 |
| 20260510031950 | 47 | 77 | 0.0 | 0.0 | 0.00 | 0.56 | 0.56 | 97 | 1011.1 |
| 20260510031446 | 47 | 133 | 0.0 | 0.0 | 0.00 | 0.56 | 0.56 | 97 | 1011.0 |
| 20260510030942 | 47 | 125 | 0.0 | 0.0 | 0.00 | 0.56 | 0.56 | 97 | 1010.9 |
| 20260510030437 | 46 | 118 | 0.0 | 0.0 | 0.00 | 0.56 | 0.56 | 97 | 1011.0 |
| 20260510025936 | 46 | 129 | 0.0 | 0.0 | 0.00 | 0.56 | 0.56 | 97 | 1011.1 |
| 20260510025433 | 46 | 134 | 0.0 | 0.0 | 0.00 | 0.56 | 0.56 | 97 | 1011.2 |
| 20260510024930 | 46 | 103 | 0.0 | 0.0 | 0.00 | 0.56 | 0.56 | 97 | 1011.4 |
| 20260510024426 | 46 | 61 | 0.0 | 0.0 | 0.00 | 0.56 | 0.56 | 97 | 1011.2 |
| 20260510023922 | 46 | 132 | 0.0 | 0.0 | 0.00 | 0.56 | 0.56 | 96 | 1011.1 |
| 20260510023419 | 46 | 123 | 0.0 | 0.0 | 0.00 | 0.56 | 0.56 | 96 | 1011.1 |
| 20260510022916 | 46 | 111 | 0.0 | 0.0 | 0.00 | 0.56 | 0.56 | 96 | 1011.2 |
| 20260510022415 | 46 | 104 | 0.0 | 0.0 | 0.00 | 0.56 | 0.56 | 96 | 1011.3 |
| 20260510021914 | 46 | 98 | 0.0 | 0.0 | 0.00 | 0.56 | 0.56 | 96 | 1011.2 |
| 20260510021412 | 46 | 108 | 0.0 | 0.0 | 0.00 | 0.56 | 0.56 | 96 | 1011.3 |
| 20260510020909 | 46 | 133 | 0.0 | 0.0 | 0.00 | 0.56 | 0.56 | 96 | 1011.4 |
| 20260510020403 | 46 | 106 | 0.0 | 0.0 | 0.00 | 0.56 | 0.56 | 96 | 1011.4 |
| 20260510015859 | 46 | 74 | 0.0 | 0.0 | 0.00 | 0.56 | 0.56 | 96 | 1011.6 |
| 20260510015355 | 46 | 74 | 0.0 | 0.0 | 0.00 | 0.56 | 0.56 | 96 | 1011.5 |
| 20260510014851 | 46 | 156 | 0.0 | 0.0 | 0.00 | 0.56 | 0.56 | 96 | 1011.7 |
| 20260510014349 | 46 | 80 | 0.0 | 0.0 | 0.00 | 0.56 | 0.56 | 96 | 1011.6 |
| 20260510013844 | 46 | 81 | 0.0 | 0.0 | 0.00 | 0.56 | 0.56 | 96 | 1011.5 |
| 20260510013340 | 46 | 108 | 0.0 | 0.0 | 0.00 | 0.56 | 0.56 | 96 | 1011.4 |
| 20260510012835 | 46 | 133 | 0.0 | 0.0 | 0.00 | 0.56 | 0.56 | 96 | 1011.4 |
| 20260510012335 | 46 | 132 | 0.0 | 0.0 | 0.00 | 0.56 | 0.56 | 96 | 1011.5 |
| 20260510011830 | 46 | 118 | 0.0 | 0.0 | 0.00 | 0.56 | 0.56 | 96 | 1011.3 |
| 20260510011326 | 46 | 141 | 0.0 | 0.0 | 0.00 | 0.56 | 0.56 | 96 | 1011.4 |
| 20260510010822 | 46 | 113 | 0.0 | 0.0 | 0.00 | 0.56 | 0.56 | 96 | 1011.0 |
| 20260510010320 | 46 | 119 | 0.0 | 0.0 | 0.00 | 0.56 | 0.56 | 96 | 1011.5 |
| 20260510005816 | 46 | 116 | 0.0 | 0.0 | 0.00 | 0.56 | 0.56 | 96 | 1011.6 |
| 20260510005312 | 46 | 130 | 0.0 | 0.0 | 0.00 | 0.56 | 0.56 | 96 | 1011.4 |
| 20260510004811 | 46 | 119 | 0.0 | 0.0 | 0.00 | 0.56 | 0.56 | 96 | 1011.5 |
| 20260510004308 | 46 | 142 | 0.0 | 0.0 | 0.00 | 0.56 | 0.56 | 96 | 1011.1 |
| 20260510003805 | 46 | 135 | 0.0 | 1.0 | 0.00 | 0.56 | 0.56 | 96 | 1011.3 |
| 20260510003302 | 46 | 122 | 0.0 | 0.0 | 0.00 | 0.56 | 0.56 | 96 | 1011.2 |
| 20260510002801 | 46 | 128 | 0.0 | 0.0 | 0.00 | 0.56 | 0.56 | 96 | 1011.2 |
| 20260510002258 | 46 | 131 | 0.0 | 0.0 | 0.00 | 0.56 | 0.56 | 96 | 1011.4 |
| 20260510001755 | 46 | 136 | 0.0 | 0.0 | 0.00 | 0.56 | 0.56 | 96 | 1011.4 |
| 20260510001253 | 46 | 128 | 0.0 | 0.0 | 0.00 | 0.56 | 0.56 | 96 | 1011.4 |
| 20260510000748 | 46 | 109 | 0.0 | 0.0 | 0.00 | 0.56 | 0.56 | 95 | 1011.3 |
| 20260510000248 | 46 | 114 | 0.0 | 0.0 | 0.00 | 0.56 | 0.56 | 95 | 1011.4 |
| 20260509235743 | 46 | 118 | 0.0 | 0.0 | 0.00 | 0.56 | 0.56 | 95 | 1011.2 |
| 20260509235240 | 46 | 127 | 0.0 | 0.0 | 0.00 | 0.56 | 0.56 | 95 | 1011.2 |
| 20260509234735 | 46 | 119 | 1.0 | 2.0 | 0.00 | 0.56 | 0.56 | 95 | 1011.0 |
| 20260509234232 | 46 | 122 | 0.0 | 0.0 | 0.00 | 0.56 | 0.56 | 95 | 1011.1 |
| 20260509233731 | 46 | 135 | 0.0 | 0.0 | 0.00 | 0.56 | 0.56 | 95 | 1010.9 |
| 20260509233228 | 46 | 100 | 0.0 | 1.0 | 0.00 | 0.56 | 0.56 | 95 | 1011.0 |
| 20260509232724 | 46 | 121 | 0.0 | 3.0 | 0.00 | 0.56 | 0.56 | 95 | 1011.0 |
| 20260509232221 | 46 | 87 | 1.0 | 2.0 | 0.00 | 0.56 | 0.56 | 95 | 1011.0 |
| 20260509231717 | 46 | 163 | 0.0 | 1.0 | 0.00 | 0.56 | 0.56 | 95 | 1011.0 |
| 20260509231215 | 46 | 121 | 0.0 | 0.0 | 0.00 | 0.56 | 0.56 | 95 | 1010.8 |
| 20260509230712 | 46 | 231 | 1.0 | 2.0 | 0.07 | 0.56 | 0.56 | 95 | 1010.7 |
| 20260509230203 | 46 | 123 | 0.0 | 2.0 | 0.07 | 0.56 | 0.56 | 95 | 1010.4 |
| 20260509225659 | 46 | 131 | 0.0 | 1.0 | 0.00 | 0.55 | 0.55 | 95 | 1010.5 |
| 20260509225154 | 46 | 130 | 1.0 | 2.0 | 0.00 | 0.55 | 0.55 | 95 | 1010.7 |
| 20260509224650 | 46 | 138 | 1.0 | 1.0 | 0.00 | 0.55 | 0.55 | 95 | 1010.5 |
| 20260509224147 | 46 | 91 | 1.0 | 3.0 | 0.00 | 0.55 | 0.55 | 95 | 1010.5 |
| 20260509223644 | 46 | 147 | 0.0 | 2.0 | 0.00 | 0.55 | 0.55 | 95 | 1010.6 |
| 20260509223141 | 46 | 103 | 0.0 | 1.0 | 0.05 | 0.55 | 0.55 | 95 | 1010.7 |
| 20260509222638 | 46 | 138 | 0.0 | 2.0 | 0.05 | 0.55 | 0.55 | 95 | 1010.7 |
| 20260509222133 | 46 | 221 | 0.0 | 1.0 | 0.07 | 0.54 | 0.54 | 95 | 1010.8 |
| 20260509221630 | 46 | 176 | 0.0 | 2.0 | 0.07 | 0.54 | 0.54 | 94 | 1010.8 |
| 20260509221126 | 46 | 176 | 3.0 | 4.0 | 0.07 | 0.53 | 0.53 | 94 | 1010.8 |
| 20260509220622 | 46 | 108 | 0.0 | 3.0 | 0.00 | 0.52 | 0.52 | 94 | 1011.3 |
| 20260509220118 | 46 | 143 | 0.0 | 2.0 | 0.05 | 0.52 | 0.52 | 94 | 1011.4 |
| 20260509215614 | 46 | 103 | 2.0 | 3.0 | 0.07 | 0.51 | 0.51 | 94 | 1011.2 |
| 20260509215111 | 47 | 156 | 0.0 | 1.0 | 0.07 | 0.51 | 0.51 | 94 | 1011.3 |
| 20260509214608 | 47 | 154 | 0.0 | 1.0 | 0.05 | 0.50 | 0.50 | 94 | 1011.4 |
| 20260509214105 | 47 | 130 | 1.0 | 4.0 | 0.05 | 0.50 | 0.50 | 94 | 1011.5 |
| 20260509213600 | 47 | 130 | 1.0 | 3.0 | 0.07 | 0.49 | 0.49 | 94 | 1011.6 |
| 20260509213058 | 47 | 114 | 0.0 | 2.0 | 0.05 | 0.48 | 0.48 | 94 | 1011.7 |
| 20260509212555 | 47 | 124 | 0.0 | 1.0 | 0.05 | 0.48 | 0.48 | 94 | 1011.8 |
| 20260509212052 | 47 | 135 | 0.0 | 0.0 | 0.07 | 0.47 | 0.47 | 94 | 1011.9 |
| 20260509211547 | 47 | 112 | 0.0 | 0.0 | 0.12 | 0.47 | 0.47 | 94 | 1011.9 |
| 20260509211044 | 47 | 142 | 0.0 | 0.0 | 0.24 | 0.46 | 0.46 | 94 | 1012.1 |
| 20260509210542 | 47 | 110 | 0.0 | 2.0 | 0.24 | 0.45 | 0.45 | 93 | 1011.7 |
| 20260509210038 | 47 | 131 | 0.0 | 1.0 | 0.12 | 0.42 | 0.42 | 93 | 1012.0 |
| 20260509205537 | 47 | 143 | 1.0 | 1.0 | 0.19 | 0.41 | 0.41 | 93 | 1011.9 |
| 20260509205033 | 47 | 103 | 2.0 | 4.0 | 0.24 | 0.40 | 0.40 | 92 | 1011.9 |
| 20260509204530 | 47 | 115 | 0.0 | 1.0 | 0.12 | 0.38 | 0.38 | 92 | 1012.0 |
| 20260509204026 | 47 | 127 | 0.0 | 1.0 | 0.07 | 0.36 | 0.36 | 92 | 1011.8 |
| 20260509203522 | 47 | 152 | 0.0 | 1.0 | 0.07 | 0.36 | 0.36 | 92 | 1011.8 |
| 20260509203021 | 47 | 148 | 0.0 | 1.0 | 0.05 | 0.35 | 0.35 | 92 | 1011.8 |
| 20260509202520 | 47 | 92 | 0.0 | 0.0 | 0.00 | 0.34 | 0.34 | 92 | 1011.6 |
| 20260509202017 | 48 | 125 | 1.0 | 2.0 | 0.00 | 0.34 | 0.34 | 91 | 1011.6 |
| 20260509201512 | 48 | 140 | 1.0 | 1.0 | 0.00 | 0.34 | 0.34 | 92 | 1011.6 |
| 20260509201010 | 47 | 172 | 0.0 | 2.0 | 0.00 | 0.34 | 0.34 | 91 | 1011.6 |
| 20260509200509 | 48 | 91 | 0.0 | 3.0 | 0.00 | 0.34 | 0.34 | 91 | 1011.6 |
| 20260509200006 | 48 | 102 | 1.0 | 3.0 | 0.00 | 0.34 | 0.34 | 91 | 1011.6 |
| 20260509195502 | 48 | 88 | 2.0 | 3.0 | 0.00 | 0.34 | 0.34 | 90 | 1011.4 |
| 20260509195001 | 48 | 148 | 0.0 | 1.0 | 0.00 | 0.34 | 0.34 | 92 | 1011.4 |
| 20260509194457 | 47 | 129 | 0.0 | 2.0 | 0.00 | 0.34 | 0.34 | 91 | 1011.4 |
| 20260509193955 | 47 | 113 | 0.0 | 3.0 | 0.00 | 0.34 | 0.34 | 92 | 1011.4 |
| 20260509193454 | 47 | 100 | 1.0 | 6.0 | 0.00 | 0.34 | 0.34 | 91 | 1011.5 |
| 20260509192950 | 47 | 125 | 1.0 | 2.0 | 0.00 | 0.34 | 0.34 | 91 | 1011.6 |
| 20260509192448 | 47 | 212 | 1.0 | 1.0 | 0.00 | 0.34 | 0.34 | 92 | 1011.6 |
| 20260509191942 | 46 | 108 | 1.0 | 4.0 | 0.00 | 0.34 | 0.34 | 92 | 1011.5 |